SCP
0 0 0 0 0 0 0 0 0 0 0 0 0 0 0 0 0 0 0 0 0 0 0 0 0 0 0 0 0 0 0 0 0 0 0 0 0 0 0 0 0 0 0 0
0 0 0 0 0 0 0 0 0 0 0 0 0 0 0 0 0 0 0 0 0 0 0 0 0 0 0 0 0 0 0 0 0 0 0 0 0 0 0 0 0 0 0 0
0 0 0 0 0 0 0 0 0 0 0 0 0 0 0 0 0 0 0 0 0 0 0 0 0 0 0 0 0 0 0 0 0 0 0 0 0 0 0 0 0 0 0 0
0 0 0 0 0 0 0 0 0 0 0 0 0 0 0 0 0 0 0 0 0 0 0 0 0 0 0 0 0 0 0 0 0 0 0 0 0 0 0 0 0 0 0 0
0 0 0 0 0 0 0 0 0 0 0 0 0 0 0 0 0 0 0 0 0 0 0 0 0 0 0 0 0 0 0 0 0 0 0 0 0 0 0 0 0 0 0 0
0 0 0 0 0 0 0 0 0 0 0 0 0 0 0 0 0 0 0 0 0 0 0 0 0 0 0 0 0 0 0 0 0 0 0 0 0 0 0 0 0 0 0 0
0 0 0 0 0 0 0 0 0 0 0 0 0 0 0 0 0 0 0 0 0 0 0 0 0 0 0 0 0 0 0 0 0 0 0 0 0 0 0 0 0 0 0 0
0 0 0 0 0 0 0 0 0 0 0 0 0 0 0 0 0 0 0 0 0 0 0 0 0 0 0 0 0 0 0 0 0 0 0 0 0 0 0 0 0 0 0 0
0 0 0 0 0 0 0 0 0 0 0 0 0 0 0 0 0 0 0 0 0 0 0 0 0 0 0 0 0 0 0 0 0 0 0 0 0 0 0 0 0 0 0 0
0 0 0 0 0 0 0 0 0 0 0 0 0 0 0 0 0 0 0 0 0 0 0 0 0 0 0 0 0 0 0 0 0 0 0 0 0 0 0 0 0 0 0 0
0 0 0 0 0 0 0 0 0 0 0 0 0 0 0 0 0 0 0 0 0 0 0 0 0 0 0 0 0 0 0 0 0 0 0 0 0 0 0 0 0 0 0 0
0 0 0 0 0 0 0 0 0 0 0 0 0 0 0 0 0 0 0 0 0 0 0 0 0 0 0 0 0 0 0 0 0 0 0 0 0 0 0 0 0 0 0 0
0 0 0 0 0 0 0 0 0 0 0 0 0 0 0 0 0 0 0 0 0 0 0 0 0 0 0 0 0 0 0 0 0 0 0 0 0 0 0 0 0 0 0 0
0 0 0 0 0 0 0 0 0 0 0 0 0 0 0 0 0 0 0 0 0 0 0 0 0 0 0 0 0 0 0 0 0 0 0 0 0 0 0 0 0 0 0 0
0 0 0 0 0 0 0 0 0 0 0 0 0 0 0 0 0 0 0 0 0 0 0 0 0 0 0 0 0 0 0 0 0 0 0 0 0 0 0 0 0 0 0 0
0 0 0 0 0 0 0 0 0 0 0 0 0 0 0 0 0 0 0 0 0 0 0 0 0 0 0 0 0 0 0 0 0 0 0 0 0 0 0 0 0 0 0 0
0 0 0 0 0 0 0 0 0 0 0 0 0 0 0 0 0 0 0 0 0 0 0 0 0 0 0 0 0 0 0 0 0 0 0 0 0 0 0 0 0 0 0 0
0 0 0 0 0 0 0 0 0 0 0 0 0 0 0 0 0 0 0 0 0 0 0 0 0 0 0 0 0 0 0 0 0 0 0 0 0 0 0 0 0 0 0 0
0 0 0 0 0 0 0 0 0 0 0 0 0 0 0 0 0 0 0 0 0 0 0 0 0 0 0 0 0 0 0 0 0 0 0 0 0 0 0 0 0 0 0 0
0 0 0 0 0 0 0 0 0 0 0 0 0 0 0 0 0 0 0 0 0 0 0 0 0 0 0 0 0 0 0 0 0 0 0 0 0 0 0 0 0 0 0 0
0 0 0 0 0 0 0 0 0 0 0 0 0 0 0 0 0 0 0 0 0 0 0 0 0 0 0 0 0 0 0 0 0 0 0 0 0 0 0 0 0 0 0 0
0 0 0 0 0 0 0 0 0 0 0 0 0 0 0 0 0 0 0 0 0 0 0 0 0 0 0 0 0 0 0 0 0 0 0 0 0 0 0 0 0 0 0 0
0 0 0 0 0 0 0 0 0 0 0 0 0 0 0 0 0 0 0 0 0 0 0 0 0 0 0 0 0 0 0 0 0 0 0 0 0 0 0 0 0 0 0 0
0 0 0 0 0 0 0 0 0 0 0 0 0 0 0 0 0 0 0 0 0 0 0 0 0 0 0 0 0 0 0 0 0 0 0 0 0 0 0 0 0 0 0 0
0 0 0 0 0 0 0 0 0 0 0 0 0 0 0 0 0 0 0 0 0 0 0 0 0 0 0 0 0 0 0 0 0 0 0 0 0 0 0 0 0 0 0 0
0 0 0 0 0 0 0 0 0 0 0 0 0 0 0 0 0 0 0 0 0 0 0 0 0 0 0 0 0 0 0 0 0 0 0 0 0 0 0 0 0 0 0 0
0 0 0 0 0 0 0 0 0 0 0 0 0 0 0 0 0 0 0 0 0 0 0 0 0 0 0 0 0 0 0 0 0 0 0 0 0 0 0 0 0 0 0 0
Wind_Speed
9 7 14 15 17 19 20 18 13 13 12 9 8 8 8 7 6 5 6 6 7 7 6 7 7 7 8 8 7 8 8 8 8 7 7 7 7 7 7 7 7 7 7 6
12 10 9 12 18 19 21 19 17 13 13 7 5 4 5 6 6 6 6 6 6 6 6 7 7 7 7 7 7 8 8 7 7 7 7 7 7 7 7 7 6 6 7 7
10 11 7 12 16 18 17 17 16 18 15 7 6 6 5 5 5 5 5 6 6 7 6 6 7 7 7 7 7 7 7 6 7 7 7 7 7 7 7 7 6 6 6 7
5 8 13 11 8 13 15 15 15 13 8 8 7 5 4 4 5 5 5 5 5 5 5 5 5 6 6 6 7 7 6 6 6 7 6 6 6 6 6 5 6 6 6 7
5 8 9 6 9 13 14 15 14 14 11 8 5 2 4 4 4 5 5 4 4 5 5 5 5 6 7 6 7 6 6 6 6 7 7 6 7 6 5 5 5 5 6 6
6 8 10 8 10 8 7 12 11 13 12 10 7 6 7 4 5 5 5 4 4 4 5 5 5 6 7 6 6 6 6 6 6 6 6 6 6 5 4 4 4 4 5 5
8 7 8 5 9 11 10 10 8 11 11 10 11 9 6 7 6 6 6 6 5 6 5 5 5 7 6 6 5 5 5 5 5 5 5 5 4 4 4 3 3 4 4 4
8 8 9 4 9 11 6 3 4 6 7 7 7 7 8 7 7 7 6 6 6 6 5 4 5 7 6 5 5 5 5 5 4 4 4 4 4 3 3 3 3 3 3 4
9 9 4 8 7 6 4 4 3 4 5 7 7 7 8 7 7 7 6 6 5 6 6 5 5 6 6 4 5 6 5 4 4 4 3 3 3 3 3 3 3 3 3 3
6 6 7 6 4 3 3 3 3 5 6 7 7 8 8 8 7 7 6 6 6 7 6 5 4 5 5 5 5 5 5 4 3 3 3 2 2 3 3 3 3 3 3 4
7 4 6 7 6 5 3 4 5 5 5 7 9 8 8 8 8 7 6 5 5 6 6 5 5 5 5 5 5 5 4 3 3 3 2 2 2 2 3 4 4 4 4 4
8 8 6 7 7 6 6 6 6 6 5 5 7 9 8 7 7 7 7 6 6 6 6 5 5 5 5 4 5 5 4 3 2 2 1 1 1 1 3 4 7 8 9 8
3 5 4 4 6 7 7 7 6 6 8 7 6 7 8 7 6 7 7 7 6 6 6 6 6 5 4 4 4 4 3 2 2 1 1 1 2 2 3 4 6 8 10 11
2 3 3 3 5 5 6 6 6 6 6 7 7 8 9 8 7 7 7 6 6 6 6 6 5 5 4 4 4 3 2 2 2 2 2 2 2 2 3 3 4 4 7 12
2 2 4 4 5 6 7 8 9 8 7 7 7 8 9 9 8 6 6 6 7 6 5 5 5 4 4 4 3 3 2 1 1 1 1 2 2 2 3 4 5 5 4 6
3 4 5 7 7 7 7 8 9 8 8 8 7 7 7 8 7 7 6 6 7 6 5 5 4 3 3 3 3 2 1 1 1 1 1 2 2 3 3 4 5 5 5 5
7 6 6 7 7 7 6 6 8 8 8 9 9 9 9 9 8 7 6 5 5 5 4 4 3 3 3 3 2 1 1 1 2 2 2 2 3 3 4 4 5 6 6 7
7 7 8 10 9 8 7 7 7 8 8 9 10 10 9 9 8 7 6 6 6 5 4 3 4 3 2 2 1 1 1 1 1 2 2 3 4 4 4 5 6 7 6 7
4 5 6 7 8 9 8 8 8 8 9 9 10 9 8 7 7 7 6 6 5 4 2 3 4 2 1 1 0 1 1 1 2 3 3 6 6 4 5 5 6 6 7 6
6 7 9 9 9 9 10 9 10 9 8 9 10 10 9 7 6 6 6 4 2 2 3 2 2 1 1 0 1 1 1 2 3 4 4 4 5 5 5 6 6 7 7 7
8 9 10 11 10 10 9 10 10 10 8 8 10 10 9 7 6 5 5 4 2 3 3 2 1 1 0 1 2 1 2 3 4 4 4 5 5 6 6 6 7 7 7 7
8 10 11 11 12 11 9 9 10 11 10 9 9 9 9 7 6 5 4 3 2 2 2 1 1 1 3 4 2 2 3 4 4 4 4 5 5 6 6 7 7 8 8 7
9 10 11 11 12 12 11 10 10 10 10 9 8 8 7 5 3 4 3 2 2 2 2 0 2 4 6 3 2 3 3 4 5 5 5 5 6 6 7 8 8 8 8 8
11 12 12 12 12 13 12 10 9 9 10 9 7 6 6 5 4 3 3 3 3 3 1 2 5 7 7 3 2 3 4 4 5 5 6 6 6 7 7 8 8 8 8 10
12 12 12 12 12 10 10 10 10 9 9 7 7 6 5 3 3 2 2 2 2 3 2 4 7 8 5 3 3 4 4 5 6 6 6 6 7 8 8 8 9 9 9 9
11 10 10 10 9 7 7 7 7 6 6 6 5 4 4 3 3 2 1 1 2 4 3 2 3 5 3 4 4 5 5 6 7 7 7 7 8 9 9 9 11 10 10 10
11 10 9 9 8 7 7 7 7 6 5 5 4 3 3 3 2 2 2 2 2 3 3 3 3 4 4 5 5 6 6 6 7 7 7 8 8 9 9 11 10 10 10 10
Wind_Direction
222 206 180 196 205 209 215 220 224 228 229 225 205 195 190 186 183 183 174 178 181 183 184 181 181 182 181 181 176 171 172 178 179 172 169 168 166 166 165 168 173 174 176 182
231 229 216 207 208 211 218 223 232 241 244 236 229 203 198 192 190 191 187 188 183 182 182 183 182 180 177 177 174 167 172 176 167 164 164 166 165 164 167 173 174 175 184 187
222 221 232 233 213 211 217 222 224 234 237 236 239 226 215 203 197 195 191 185 180 181 183 183 178 173 174 170 161 163 168 167 165 164 166 169 166 168 176 178 178 186 192 194
197 196 224 232 203 208 218 224 222 231 230 221 224 219 209 195 192 194 186 176 173 170 171 168 158 155 153 149 151 157 162 163 163 164 166 165 168 177 181 181 185 192 198 201
186 210 239 229 204 201 209 230 218 222 224 218 201 222 251 213 181 172 163 154 153 151 150 146 147 145 139 142 145 152 162 165 164 162 165 169 178 183 183 184 193 196 196 201
181 202 224 222 191 182 186 242 217 210 214 202 174 205 231 183 156 139 125 121 123 120 119 130 137 133 135 143 148 161 165 162 159 161 166 176 182 183 183 186 196 196 205 208
192 209 243 225 168 146 183 228 201 198 200 188 190 198 169 138 129 124 123 122 118 114 116 127 127 125 133 139 153 154 145 146 152 159 166 170 172 175 177 185 191 202 214 221
194 206 229 177 153 173 196 165 165 176 175 168 165 149 139 134 131 126 123 119 118 115 112 111 119 125 130 141 139 127 130 140 149 153 157 158 164 176 179 181 194 211 221 233
194 211 191 165 183 193 151 148 149 148 145 142 143 147 143 141 137 133 129 124 118 118 113 104 108 122 131 134 124 124 129 138 143 143 148 154 164 177 182 185 197 215 221 234
200 205 189 190 183 175 156 145 135 135 135 138 143 144 142 141 138 133 127 127 123 120 120 118 112 111 120 120 118 123 132 138 139 141 150 160 168 175 184 196 206 218 227 238
212 188 157 200 198 182 151 122 113 118 132 145 141 143 144 143 140 136 131 129 126 130 132 133 125 114 115 119 123 128 134 135 136 143 158 177 192 201 205 212 212 223 228 226
204 185 175 206 198 175 164 167 155 142 133 133 140 143 137 136 134 132 132 129 129 130 132 130 123 118 116 117 122 128 133 139 145 153 170 186 210 270 258 257 259 255 257 258
194 173 178 185 179 173 171 169 158 152 149 140 132 130 129 126 126 127 130 135 140 138 134 129 124 121 117 114 115 123 135 145 147 162 185 204 215 229 268 286 277 272 271 273
166 134 164 178 176 162 145 140 128 120 121 124 121 118 119 119 123 129 136 139 132 126 126 125 122 122 119 112 112 118 128 151 166 185 198 215 228 237 245 262 278 276 273 275
166 137 159 141 121 117 121 123 123 123 120 115 117 122 126 129 131 129 124 123 120 119 120 120 120 118 111 110 116 125 134 163 177 197 217 233 242 249 254 260 267 276 280 280
132 110 127 135 137 137 135 136 138 140 136 130 126 124 122 119 116 113 114 120 125 128 126 122 122 119 108 111 117 121 150 234 258 234 241 249 251 255 260 264 270 273 273 274
154 166 163 160 158 157 154 150 147 143 137 135 132 125 120 117 114 112 107 101 105 108 111 117 119 109 104 109 119 140 174 240 274 274 250 248 252 255 259 262 266 270 270 276
180 177 171 165 160 152 140 131 129 130 132 130 125 124 126 129 130 125 116 108 100 91 87 101 108 104 102 106 117 143 196 236 246 250 256 259 266 261 262 265 268 273 278 282
143 139 133 131 136 136 132 128 123 120 121 124 124 122 118 116 118 117 114 112 115 115 109 105 102 97 110 127 63 174 224 252 263 265 265 275 279 269 266 267 270 272 277 279
107 108 109 108 108 115 120 121 119 117 116 117 115 112 109 108 109 110 106 99 101 123 123 111 99 99 110 253 314 228 240 254 262 268 269 265 266 268 267 270 272 273 274 274
111 110 110 110 105 104 110 116 117 115 110 110 115 116 114 107 105 108 109 101 87 92 96 85 79 90 339 287 305 270 261 265 267 267 267 267 269 270 270 271 273 275 275 276
111 111 111 111 108 100 94 97 104 106 104 102 104 108 108 105 99 88 85 107 114 87 70 69 68 307 299 306 290 273 269 269 269 268 266 267 269 271 273 274 275 277 277 275
105 106 106 107 107 102 93 89 93 98 99 101 103 105 105 102 98 104 96 88 83 53 35 11 307 308 312 314 286 275 274 273 273 271 270 270 271 272 274 276 277 277 277 277
98 96 97 100 101 99 95 90 88 88 87 84 81 86 94 93 76 69 91 81 41 8 2 317 316 315 318 310 287 279 275 275 274 273 273 273 275 275 275 276 277 276 276 277
96 96 96 96 94 95 98 97 91 88 86 83 77 71 68 74 88 78 61 45 2 347 334 319 318 319 318 297 287 280 276 273 276 278 271 275 276 277 277 277 277 277 277 276
90 89 86 84 88 93 93 91 88 85 85 84 74 66 64 63 65 58 43 15 345 332 328 313 309 309 297 286 282 280 278 285 289 284 278 278 278 278 278 278 277 276 277 276
85 85 85 80 73 73 77 80 82 77 75 81 77 60 53 47 41 28 7 353 340 329 317 309 304 296 291 287 284 282 281 279 278 277 276 276 276 276 277 277 278 278 276 275